• In Hungary
  • List of Countries
  • For 7 days
  • Water Temperature
  • Satellite Maps
  • Weather Map
  • News
  • Weather Widgets
  • user-avatar
    Login

    Hourly Weather Gjirokaster

    Today, 22 August, Wednesday

    Time Temperature Precipitation Wind Pressure Humidity
    00:00 +16°C° 0 mm 2 mps 653 mmHg 63%
    01:00 +15°C° 0 mm 2 mps 653 mmHg 62%
    02:00 +15°C° 0 mm 2 mps 653 mmHg 61%
    03:00 +15°C° 0 mm 2 mps 653 mmHg 59%
    04:00 +15°C° 0 mm 2 mps 653 mmHg 58%
    05:00 +16°C° 0 mm 2 mps 653 mmHg 56%
    06:00 +17°C° 0 mm 2 mps 654 mmHg 54%
    07:00 +18°C° 0 mm 2 mps 654 mmHg 52%
    08:00 +21°C° 0 mm 1 mps 655 mmHg 48%
    09:00 +23°C° 0 mm 1 mps 655 mmHg 43%
    10:00 +25°C° 0 mm 1 mps 656 mmHg 38%
    11:00 +25°C° 0 mm 2 mps 656 mmHg 36%
    12:00 +26°C° 0 mm 2 mps 655 mmHg 35%
    13:00 +26°C° 0 mm 3 mps 655 mmHg 33%
    14:00 +25°C° 0 mm 3 mps 655 mmHg 36%
    15:00 +25°C° 0 mm 2 mps 655 mmHg 40%
    16:00 +24°C° 0 mm 2 mps 654 mmHg 43%
    17:00 +21°C° 0 mm 2 mps 654 mmHg 48%
    18:00 +20°C° 0 mm 2 mps 654 mmHg 54%
    19:00 +19°C° 0 mm 1 mps 653 mmHg 60%
    20:00 +18°C° 0 mm 1 mps 653 mmHg 60%
    21:00 +18°C° 0 mm 1 mps 653 mmHg 61%
    22:00 +16°C° 0 mm 1 mps 653 mmHg 61%
    23:00 +16°C° 0 mm 1 mps 653 mmHg 60%

    Tomorrow, 23 August, Thursday

    Time Temperature Precipitation Wind Pressure Humidity
    00:00 +16°C° 0 mm 1 mps 653 mmHg 58%
    01:00 +16°C° 0 mm 2 mps 653 mmHg 56%
    02:00 +15°C° 0 mm 2 mps 653 mmHg 54%
    03:00 +15°C° 0 mm 2 mps 652 mmHg 53%
    04:00 +15°C° 0 mm 2 mps 652 mmHg 51%
    05:00 +16°C° 0 mm 2 mps 652 mmHg 50%
    06:00 +17°C° 0 mm 2 mps 653 mmHg 49%
    07:00 +18°C° 0 mm 2 mps 653 mmHg 47%
    08:00 +20°C° 0 mm 2 mps 653 mmHg 42%
    09:00 +23°C° 0 mm 2 mps 654 mmHg 38%
    10:00 +25°C° 0 mm 1 mps 654 mmHg 33%
    11:00 +26°C° 0 mm 2 mps 654 mmHg 32%
    12:00 +26°C° 0 mm 2 mps 654 mmHg 31%
    13:00 +27°C° 0 mm 3 mps 654 mmHg 30%
    14:00 +26°C° 0 mm 3 mps 653 mmHg 31%
    15:00 +26°C° 0 mm 2 mps 653 mmHg 33%
    16:00 +25°C° 0 mm 2 mps 653 mmHg 34%
    17:00 +23°C° 0 mm 2 mps 652 mmHg 40%
    18:00 +21°C° 0 mm 1 mps 652 mmHg 47%
    19:00 +19°C° 0 mm 1 mps 652 mmHg 53%
    20:00 +18°C° 0 mm 1 mps 652 mmHg 53%
    21:00 +18°C° 0 mm 1 mps 652 mmHg 53%
    22:00 +16°C° 0 mm 1 mps 652 mmHg 53%
    23:00 +16°C° 0 mm 1 mps 652 mmHg 51%

    Day after tomorrow, 24 August, Friday

    Time Temperature Precipitation Wind Pressure Humidity
    00:00 +16°C° 0 mm 1 mps 651 mmHg 49%
    01:00 +15°C° 0 mm 1 mps 651 mmHg 47%
    02:00 +15°C° 0 mm 1 mps 651 mmHg 46%
    03:00 +15°C° 0 mm 1 mps 651 mmHg 45%
    04:00 +15°C° 0 mm 1 mps 651 mmHg 44%
    05:00 +16°C° 0 mm 1 mps 651 mmHg 44%
    06:00 +18°C° 0 mm 1 mps 651 mmHg 44%
    07:00 +18°C° 0 mm 2 mps 651 mmHg 44%
    08:00 +21°C° 0 mm 1 mps 652 mmHg 42%
    09:00 +23°C° 0 mm 1 mps 652 mmHg 39%
    10:00 +25°C° 0 mm 1 mps 653 mmHg 36%
    11:00 +25°C° 0 mm 2 mps 653 mmHg 37%
    12:00 +25°C° 0 mm 2 mps 652 mmHg 37%
    13:00 +25°C° 0 mm 2 mps 652 mmHg 37%
    14:00 +25°C° 0 mm 2 mps 652 mmHg 40%
    15:00 +24°C° 0 mm 2 mps 652 mmHg 43%
    16:00 +23°C° 0 mm 2 mps 651 mmHg 45%
    17:00 +22°C° 0 mm 1 mps 651 mmHg 50%
    18:00 +20°C° 0 mm 1 mps 651 mmHg 55%
    19:00 +19°C° 0 mm 1 mps 651 mmHg 60%
    20:00 +18°C° 0.1 mm 1 mps 651 mmHg 62%
    21:00 +18°C° 0.1 mm 1 mps 651 mmHg 64%
    22:00 +16°C° 0.1 mm 1 mps 651 mmHg 66%
    23:00 +16°C° 0.1 mm 1 mps 650 mmHg 66%

    25 August, Saturday

    Time Temperature Precipitation Wind Pressure Humidity
    00:00 +16°C° 0.1 mm 1 mps 650 mmHg 67%
    01:00 +15°C° 0.1 mm 1 mps 650 mmHg 67%
    02:00 +15°C° 0 mm 1 mps 650 mmHg 67%
    03:00 +15°C° 0 mm 1 mps 649 mmHg 67%
    04:00 +15°C° 0 mm 1 mps 649 mmHg 67%
    05:00 +16°C° 0 mm 1 mps 650 mmHg 64%
    06:00 +18°C° 0 mm 1 mps 650 mmHg 60%
    07:00 +19°C° 0 mm 1 mps 650 mmHg 57%
    08:00 +21°C° 0 mm 1 mps 651 mmHg 52%
    09:00 +23°C° 0 mm 1 mps 651 mmHg 47%
    10:00 +24°C° 0 mm 2 mps 652 mmHg 42%
    11:00 +24°C° 0.1 mm 2 mps 652 mmHg 42%
    12:00 +25°C° 0.1 mm 2 mps 651 mmHg 43%
    13:00 +25°C° 0.1 mm 3 mps 651 mmHg 43%
    14:00 +24°C° 0.1 mm 3 mps 651 mmHg 46%
    15:00 +24°C° 0.1 mm 2 mps 651 mmHg 49%
    16:00 +23°C° 0.1 mm 2 mps 650 mmHg 51%
    17:00 +21°C° 0.2 mm 2 mps 650 mmHg 57%
    18:00 +19°C° 0.2 mm 2 mps 650 mmHg 63%
    19:00 +18°C° 0.2 mm 1 mps 650 mmHg 69%
    20:00 +18°C° 0.1 mm 1 mps 650 mmHg 72%
    21:00 +16°C° 0.1 mm 1 mps 650 mmHg 74%
    22:00 +16°C° 0.1 mm 1 mps 650 mmHg 77%
    23:00 +15°C° 0 mm 1 mps 649 mmHg 79%

    26 August, Sunday

    Time Temperature Precipitation Wind Pressure Humidity
    00:00 +15°C° 0 mm 1 mps 649 mmHg 80%
    01:00 +15°C° 0 mm 1 mps 649 mmHg 82%
    02:00 +14°C° 0 mm 2 mps 649 mmHg 83%
    03:00 +14°C° 0 mm 2 mps 649 mmHg 84%
    04:00 +14°C° 0 mm 2 mps 649 mmHg 85%
    05:00 +15°C° 0 mm 2 mps 649 mmHg 80%
    06:00 +16°C° 0 mm 2 mps 649 mmHg 75%
    07:00 +17°C° 0 mm 2 mps 650 mmHg 70%
    08:00 +19°C° 0 mm 2 mps 650 mmHg 62%
    09:00 +20°C° 0 mm 2 mps 651 mmHg 55%
    10:00 +23°C° 0 mm 2 mps 651 mmHg 48%
    11:00 +22°C° 0.1 mm 3 mps 651 mmHg 46%
    12:00 +24°C° 0.1 mm 3 mps 651 mmHg 45%
    13:00 +24°C° 0.1 mm 3 mps 650 mmHg 44%
    14:00 +24°C° 0.3 mm 3 mps 650 mmHg 48%
    15:00 +22°C° 0.3 mm 3 mps 650 mmHg 52%
    16:00 +21°C° 0.3 mm 3 mps 650 mmHg 55%
    17:00 +20°C° 0.2 mm 2 mps 649 mmHg 62%
    18:00 +18°C° 0.2 mm 2 mps 649 mmHg 69%
    19:00 +16°C° 0.2 mm 1 mps 649 mmHg 76%
    20:00 +16°C° 0.2 mm 1 mps 649 mmHg 78%
    21:00 +15°C° 0.2 mm 1 mps 649 mmHg 80%
    22:00 +14°C° 0.2 mm 0 mps 649 mmHg 82%
    23:00 +14°C° 0.1 mm 1 mps 649 mmHg 83%

    27 August, Monday

    Time Temperature Precipitation Wind Pressure Humidity
    00:00 +14°C° 0.1 mm 1 mps 648 mmHg 84%
    01:00 +14°C° 0.1 mm 1 mps 648 mmHg 84%
    02:00 +13°C° 0 mm 1 mps 648 mmHg 85%
    03:00 +13°C° 0 mm 1 mps 648 mmHg 85%
    04:00 +13°C° 0 mm 1 mps 648 mmHg 85%
    05:00 +14°C° 0.1 mm 1 mps 648 mmHg 80%
    06:00 +15°C° 0.1 mm 1 mps 649 mmHg 74%
    07:00 +16°C° 0.1 mm 1 mps 649 mmHg 69%
    08:00 +18°C° 0.2 mm 1 mps 649 mmHg 63%
    09:00 +19°C° 0.2 mm 2 mps 650 mmHg 57%
    10:00 +20°C° 0.2 mm 2 mps 650 mmHg 50%
    11:00 +20°C° 0.3 mm 3 mps 650 mmHg 50%
    12:00 +21°C° 0.3 mm 3 mps 650 mmHg 50%
    13:00 +21°C° 0.3 mm 4 mps 650 mmHg 50%
    14:00 +20°C° 0.4 mm 4 mps 650 mmHg 53%
    15:00 +20°C° 0.4 mm 4 mps 650 mmHg 57%
    16:00 +19°C° 0.4 mm 4 mps 650 mmHg 60%
    17:00 +18°C° 0.6 mm 4 mps 650 mmHg 66%
    18:00 +17°C° 0.6 mm 4 mps 650 mmHg 71%
    19:00 +15°C° 0.6 mm 4 mps 650 mmHg 77%
    20:00 +14°C° 0.1 mm 4 mps 650 mmHg 78%
    21:00 +14°C° 0.1 mm 4 mps 650 mmHg 80%
    22:00 +13°C° 0.1 mm 3 mps 650 mmHg 82%
    23:00 +13°C° 0 mm 3 mps 650 mmHg 82%
    Show more